Rbgn^[z[y[W
メイン
   新天体発見情報
     Comet C/2020 S2 (PANSTARRS)
投稿するにはまず登録を

スレッド表示 | 新しいものから 前のトピック | 次のトピック | 下へ
投稿者 スレッド
佐藤裕久
投稿日時: 2020-9-23 15:08
モデレータ
登録日: 2005-6-12
居住地: 日本
投稿: 2129
オンライン
Comet C/2020 S2 (PANSTARRS)

R. Weryk (ハワイ大学, 天文学研究所)の通報によると、9月16日UT、ハワイ Haleakalaにある
Pan-STARRS1 1.8-m Ritchey-Chretien反射望遠鏡で得た45秒3枚のw-バンド画像から彗星を発見
した。1".0のシーイングで拡散した1".8(FWHM)のコマがあると思われ、幅広く、南西に向かって
短い尾があるらしい。
小惑星センターのPCCP webpageに公表後、L. Buzzi (0.84-m f/3.5 反射望遠鏡, Varese, イタリア, 
測定はA. Aletti; 9月17.0日UT、拡散したコマが見え、p.a. 290°にかすかな8" の尾がある)や
佐藤英貴氏(東京都文京区, 9月17.3日,60秒露出18枚のスタック,  0.43-m f/6.8 アストログラフ, 
Mayhill近郊, ニューメキシコ州, 遠隔操作:強く集光した6" のコマが見える。5".7の円形範囲で
測定した光度は20.3等であった)ら、他のCCD位置観測者によって彗星状と観測された。

彗星機能の報告は次の通り:

OC   Date        Reporter           Coma    Tail    PA          Exposures
G96  2020-09-06  D. Rankin           6"
G96  2020-09-11  D. Rankin           6"
204  2020-09-16  A. Aletti           5"      8"     290
H06  2020-09-17  H. Sato             6"                          18x60s
568  2020-09-17  R. Weryk            4"                           3x60s
F51  2020-09-17  Y. Ramanjooloo     2".26                         4x60s

発見位置は次のとおり、

     2020 UT             R.A. (2000) Decl.       Mag.
     Sept.16.32593   22 58 32.32   +14 01 23.8   20.7
          16.33743   22 58 32.11   +14 01 12.5   20.6
          16.34898   22 58 31.89   +14 01 01.0   20.6

MPCの楕円軌道要素、位置推算表は次のとおり、

Orbital elements:
    C/2020 S2 (PANSTARRS)                                                       
Epoch 2020 Dec. 17.0 TT = JDT 2459200.5                                         
T 2020 Dec. 21.89304 TT                                 Rudenko                 
q   1.7562090            (2000.0)            P               Q                  
n   0.03060719     Peri.  202.22421     +0.77559687     -0.62052284             
a  10.1217074      Node   197.69651     +0.62115728     +0.78290694             
e   0.8264908      Incl.   22.38500     +0.11230820     -0.04481217             
P  32.2                                                                         
From 41 observations 2020 Aug. 19-Sept. 18, mean residual 0".5.                 
                                                                                
    C/2020 S2 (PANSTARRS)                                                       
Epoch 2053 May 18.0 TT = JDT 2471040.5                                          
T 2053 May 23.42876 TT                                  Rudenko                 
q   1.7672785            (2000.0)            P               Q                  
n   0.03028998     Peri.  202.39722     +0.77524483     -0.62121281             
a  10.1922498      Node   197.54855     +0.62166353     +0.78245286             
e   0.8266057      Incl.   22.30013     +0.11193708     -0.04315269             
P  32.5                                                                         
From 41 observations 2020 Aug. 19-Sept. 18, mean residual 0".5.                 
                                                                                
    C/2020 S2 (PANSTARRS)                                                       
Epoch 2020 May 31.0 TT = JDT 2459000.5                                          
T 2020 Dec. 21.86345 TT                                 Rudenko                 
q   1.7564296            (2000.0)            P               Q                  
n   0.03056814     Peri.  202.20060     +0.77578123     -0.62028694             
a  10.1303238      Node   197.70298     +0.62091444     +0.78309717             
e   0.8266166      Incl.   22.38253     +0.11237765     -0.04475416             
P  32.2                                                                         
From 41 observations 2020 Aug. 19-Sept. 18, mean residual 0".5.                 
                                                                                
Ephemeris:
Date    TT    R. A. (2000) Decl.     Delta      r    Elong.  Phase   m1
2020 08 21    23 04 56.1 +18 37 10   1.3436  2.2513   145.5    14.8  21.2
...
2020 09 05    23 01 45.6 +16 38 56   1.1898  2.1522   156.5    10.8  20.7
...
2020 09 13    22 59 27.9 +14 53 38   1.1273  2.1021   160.3     9.3  20.5
...
2020 09 19    22 57 50.4 +13 16 08   1.0901  2.0660   161.0     9.1  20.3
2020 09 20    22 57 35.8 +12 58 29   1.0848  2.0601   160.9     9.2  20.3
2020 09 21    22 57 21.9 +12 40 28   1.0797  2.0543   160.7     9.3  20.3
...
2020 09 27    22 56 16.6 +10 45 27   1.0540  2.0201   158.4    10.5  20.2
...
2020 10 05    22 55 54.6 +07 58 24   1.0331  1.9768   153.0    13.3  20.0
...
2020 10 20    22 59 56.6 +02 34 55   1.0326  1.9042   139.7    19.8  19.9

(MPEC 2020-S105、CBET 4854)

スレッド表示 | 新しいものから 前のトピック | 次のトピック | トップ

投稿するにはまず登録を
 
© 1999 Tsutomu Seki.